ONEWEB-0085 (45438 NORAD) Tracking and Keplerian Element Data

This shows tracking and keplerian element data for the satellite.

Feedback or suggestion? Click here.




ElementValue
Catalog45438
NameONEWEB-0085
Epoch Orbit156
Epoch Day93.91667824
Epoch Year2020
RAAN134.5872
Inclination87.399
Eccentricity0.0020846
Argument of Perigee255.4596
Mean Anonmoly285.2344
Mean Motion15.36727418
Decay Rate0.0004502
L11 45438U 20020Q 20093.91667824 .00045020 00000-0 12407-2 0 9992
L22 45438 87.3990 134.5872 0020846 255.4596 285.2344 15.36727418 1562

Live tracking and technical data element details for ONEWEB-0085 (NORAD 45438). ONEWEB-0085 can be tracked NOW for your location showing map with azimuth and elevation plus other details from your city location.

Track the satellite on the map from your city or location and see movement details for azimuth, elevation, latitude, longitude, range, height, and movement on the map or in text.







IsCatalogInMostPopularTable: catalog: 45438, numindb: 3
Update: records affected: 1



GetName: 45438 ONEWEB-0085

Hit Count: updated at: Tue, 07 Apr 2020 17:31:52 GMT